This demonstration page uses our WeatherBlox Daily Observations layout. Learn more.

Left ArrowRight Arrow

Hourly Observations for May 29, 2022

Temp ( °F °C ) Dew Point ( °F °C ) Humidity (%) Winds ( mph kmh ) Pressure ( in mb ) Visibility ( mi km ) Precip ( " mm )
12:56 am 00:56 Mostly Clear 75 23.8 62 16.6 64 64 SSE 18 30 29.52 1000 10 16 0.00 0.00
1:56 am 01:56 Mostly Cloudy 75 23.7 61 16 62 62 SSE 18 30 29.50 999 10 16 0.00 0.00
2:56 am 02:56 Mostly Cloudy 74 23.4 61 15.9 63 63 SSE 20 31 29.47 998 10 16 0.00 0.00
3:20 am 03:20 Windy with Rain Showers Likely 73 23 61 16 65 65 SSE 21 33 29.45 997 6 10 0.00 0.00
3:40 am 03:40 Mostly Cloudy 73 23 61 16 65 65 SSE 17 28 29.46 998 10 16 0.00 0.00
3:56 am 03:56 Mostly Cloudy 73 22.8 60 15.6 64 64 SSE 17 28 29.45 997 10 16 0.01 0.25
4:56 am 04:56 Mostly Cloudy 73 22.6 60 15.4 64 64 SSE 10 17 29.44 997 10 16 0.00 0.00
5:56 am 05:56 Mostly Cloudy 72 22 60 15.6 67 67 SE 15 24 29.43 997 10 16 0.00 0.00
6:56 am 06:56 Mostly Sunny 69 20.8 60 15.6 72 72 SE 9 15 29.44 997 10 16 0.00 0.00
7:56 am 07:56 Sunny 72 22.3 61 15.9 67 67 SSE 15 24 29.44 997 10 16 0.00 0.00
8:56 am 08:56 Partly Cloudy 75 24 61 16 61 61 SSE 21 33 29.44 997 10 16 0.00 0.00
9:08 am 09:08 Partly Cloudy 77 25 61 16 57 57 SSE 21 33 29.43 997 10 16 0.00 0.00
9:56 am 09:56 Mostly Cloudy 77 24.9 61 16.3 59 59 SSE 18 30 29.42 996 10 16 0.00 0.00
10:56 am 10:56 Sunny 80 26.6 62 16.8 55 55 SSE 23 37 29.41 996 10 16 0.00 0.00
11:56 am 11:56 Mostly Sunny 83 28.6 65 18.1 53 53 SSE 22 35 29.40 996 10 16 0.00 0.00
12:56 pm 12:56 Mostly Sunny 86 30 64 17.8 48 48 S 20 31 29.38 995 10 16 0.00 0.00
1:56 pm 13:56 Sunny 86 30.2 65 18.3 49 49 S 20 31 29.38 995 10 16 0.00 0.00
2:56 pm 14:56 Mostly Sunny 89 31.4 64 18 45 45 S 24 39 29.37 995 10 16 0.00 0.00
3:56 pm 15:56 Partly Cloudy 88 31.1 62 16.6 42 42 S 17 28 29.37 995 10 16 0.00 0.00
4:56 pm 16:56 Partly Cloudy 88 31 64 18 46 46 S 18 30 29.37 995 10 16 0.00 0.00
5:56 pm 17:56 Mostly Cloudy 87 30.3 64 18 48 48 S 20 31 29.38 995 10 16 0.00 0.00
6:56 pm 18:56 Mostly Cloudy 85 29.3 65 18.1 51 51 SSE 15 24 29.41 996 10 16 0.00 0.00
7:56 pm 19:56 Mostly Cloudy 83 28.5 66 19.1 57 57 SSE 13 20 29.41 996 10 16 0.00 0.00
8:56 pm 20:56 Mostly Cloudy 82 27.7 66 18.9 59 59 SSE 16 26 29.43 997 10 16 0.00 0.00
9:56 pm 21:56 Cloudy 81 27 66 18.8 61 61 SSE 15 24 29.45 997 10 16 0.00 0.00
10:56 pm 22:56 Partly Cloudy 80 26.6 64 17.9 59 59 SSE 20 31 29.46 998 10 16 0.00 0.00
11:56 pm 23:56 Mostly Clear 79 26.2 63 17 57 57 SSE 21 33 29.47 998 10 16 0.00 0.00

Powered by AerisWeather